GPS IIF-1

operational
NORAD ID: 36585 Int'l Des: 2010-022 Owner: AFSMC Country: US Constellation: GPS
MEOGNSS

About GPS IIF-1

Description loading...

Live Position

Loading 3D Globe...

Upcoming Passes

Altitude History

Altitude vs Time

uPlot chart will show altitude changes over time

Two-Line Element Set

1 36585U 10022A 25295.29050880 .00000000 00000-0 00000-0 0 9997
2 36585 54.3118 218.1477 0123583 64.5098 52.3813 2.00550543112825
Epoch: Oct 22, 2025 • Age: 78 hours

Current Status

Altitude 20373.2 km
Velocity 3.85 km/s
Sub-Earth Point -43.73°S, 53.79°W
Launch Date May 28, 2010
Age 15.4 years
Type navigation

Technical Details

Classification Payload
Mass 1630.00 kg
Dry Mass 1500.00 kg
Total Mass 1630.00 kg
Length 2.50 m
Diameter 1.80 m
Span 18.00 m
Shape Box + 2 Pan
Manufacturer BOES
Bus Type GPS IIF
Phase Status In Orbit
Owner/State AFSMC/US

Large Constellations

Loading constellations...